This is the latest recevied weather packets stored in our database for station/object IZ3LCH-13. If no packets are shown the sender has not sent any weather packets the latest 10 day(s).
| Time | Temp. | Humidity | Pressure | Rain* | Wind** | Luminosity | Snow |
|---|---|---|---|---|---|---|---|
| 1777618803 | 14.44° C | 41% | 1027.8 hPa | 0 mm | - | - | - |
| 1777618503 | 14.44° C | 43% | 1027.5 hPa | 0 mm | - | - | - |
| 1777618203 | 13.89° C | 44% | 1027.7 hPa | 0 mm | - | - | - |
| 1777617903 | 13.89° C | 44% | 1027.5 hPa | 0 mm | - | - | - |
| 1777617603 | 13.33° C | 43% | 1027.6 hPa | 0 mm | - | - | - |
| 1777617303 | 13.33° C | 46% | 1027.8 hPa | 0 mm | - | - | - |
| 1777617003 | 12.78° C | 45% | 1027.6 hPa | 0 mm | - | - | - |
| 1777616704 | 12.78° C | 47% | 1027.5 hPa | 0 mm | - | - | - |
| 1777616403 | 12.22° C | 45% | 1027.2 hPa | 0 mm | - | - | - |
| 1777616104 | 12.22° C | 47% | 1027.4 hPa | 0 mm | - | - | - |
| 1777615804 | 11.67° C | 56% | 1027.6 hPa | 0 mm | - | - | - |
| 1777615503 | 11.67° C | 56% | 1027.5 hPa | 0 mm | - | - | - |
| 1777615203 | 11.67° C | 56% | 1027.3 hPa | 0 mm | - | - | - |
| 1777614903 | 11.67° C | 56% | 1027.2 hPa | 0 mm | - | - | - |
| 1777614603 | 11.11° C | 57% | 1027 hPa | 0 mm | - | - | - |
| 1777614303 | 11.11° C | 57% | 1027.1 hPa | 0 mm | - | - | - |
| 1777614003 | 11.11° C | 58% | 1027.1 hPa | 0 mm | - | - | - |
| 1777613703 | 10.56° C | 59% | 1027.1 hPa | 0 mm | - | - | - |
| 1777613403 | 10.56° C | 60% | 1027.1 hPa | 0 mm | - | - | - |
| 1777613103 | 10.56° C | 60% | 1026.8 hPa | 0 mm | - | - | - |
| 1777612803 | 10.56° C | 60% | 1026.9 hPa | 0 mm | - | - | - |
| 1777612503 | 10° C | 60% | 1027.1 hPa | 0 mm | - | - | - |
| 1777612203 | 10° C | 61% | 1027.1 hPa | 0 mm | - | - | - |
| 1777611903 | 9.44° C | 62% | 1027 hPa | 0 mm | - | - | - |
| 1777611603 | 9.44° C | 63% | 1026.9 hPa | 0 mm | - | - | - |
* Rain latest hour (hover to see other rain measurements)
** Current wind speed in m/s (hover to see current wind gust speed)